www.pogodaiklimat.ru

Погода и климат >> Архив погоды >> Марокко >> Кенитра


ПОГОДА в Кенитре

  • Прогноз погоды в Кенитре
  • Монитор погоды в Кенитре

АРХИВ ПОГОДЫ в Кенитре

Время (UTC), дата Ветер
(напр.,м/с)
 
Видим.   Явления Облачность Т
(С)
Тd
(С)
f
(%)
Тe
(С)
Тes
(С)
Комфортность P
(гПа)
Po
(гПа)
Тmin
(С)
Tmax
(С)
R
(мм)
R24
(мм)
S
(см)
12 13.08 З 7-7
{12}
10 км ясно +27.0 +18.3 59 +32 +37 очень
душно
1015.6 1014.1
18 13.08 СЗ 9-12
{14}
5000 м 3/0
[Ci sp]
+25.0 +19.6 72 +30 +30 душно 1013.8 1012.3 +28.9
00 14.08 ЮЗ 7-10
{12}
5000 м ясно +21.8 +19.9 89 +27 +27 душно 1015.3 1013.9
06 14.08 Ю 5-7
{8}
6000 м 8/8 300 м
[Sc]
+22.3 +20.0 87 +28 +28 душно 1014.5 1013.0 +15.2
12 14.08 СЗ 7-10
{12}
8000 м ясно +28.7 +19.9 59 +35 +40 очень
душно
1015.5 1013.9
18 14.08 З 7-10
{12}
5000 м ясно +25.9 +21.1 75 +33 +33 очень
душно
1013.9 1012.3 +30.1
00 15.08 ЮЗ 5-8
{6}
5000 м 4/4 480 м
[Sc]
+22.8 +21.8 94 +31 +31 очень
душно
1015.5 1010.0
06 15.08 Ю 2 800 м туман ясно +19.9 +19.6 98 +24 +24 комфорт 1015.1 1013.6 +18.9
12 15.08 З 11-16
{18}
8000 м ясно +28.4 +20.7 63 +35 +36 очень
душно
1015.5 1014.0
18 15.08 З 7-10
{18}
3500 м дымка 9/9 300 м
[St]
+22.6 +20.5 88 +29 +29 очень
душно
1014.5 1013.0 +29.1
06 16.08 ЮЗ 7 3000 м дымка 6/6 480 м
[Sc]
+21.8 +20.8 94 +28 +28 душно 1015.1 1013.6 +20.9
12 16.08 З 10-16
{16}
6000 м ясно +27.5 +20.6 66 +34 +35 очень
душно
1015.1 1013.6
18 16.08 СЗ 6-10
{12}
3500 м дымка 4/4 300 м
[St]
+25.4 +20.9 76 +32 +32 очень
душно
1013.1 1011.6 +29.1
00 17.08 ЮЗ 8-12
{13}
700 м туман 6/6 300 м
[St]
+22.2 +21.5 96 +29 +29 очень
душно
1014.3 1012.9
12 17.08 З 9-14
{16}
8000 м 3/3 480 м
[Sc]
+28.4 +21.2 65 +36 +37 очень
душно
1013.1 1011.5
18 17.08 З 11-15
{16}
4000 м дымка 9/9 300 м
[Sc]
+23.4 +20.7 85 +31 +31 очень
душно
1011.5 1010.1 +29.2
00 18.08 ЮЗ 6-9
{16}
3000 м дымка 10/10 300 м
[Sc]
+22.5 +21.1 92 +30 +30 очень
душно
1014.5 1013.0
06 18.08 3000 м дымка н/о +21.2 +19.8 92 +26 +26 душно 1014.0 1012.5 +21.2
12 18.08 З 10-14
{17}
6000 м 3/3 480 м
[Sc]
+26.0 +18.9 65 +31 +32 очень
душно
1015.9 1014.3
18 18.08 З 9-12
{16}
6000 м 4/4 480 м
[Sc]
+24.1 +20.2 79 +30 +30 очень
душно
1014.4 1012.8 +27.5
00 19.08 З 4-7
{8}
5000 м 9/9 480 м
[Sc]
+22.1 +18.9 82 +27 +27 душно 1016.4 1014.8
06 19.08 Ю 2 5000 м 5/5 480 м
[Sc]
+21.5 +18.1 81 +26 +26 душно 1015.4 1013.9 +18.8
12 19.08 З 8-13
{18}
8000 м ясно +27.1 +18.7 60 +32 +36 очень
душно
1015.8 1014.2
18 19.08 СЗ 8-12
{20}
5000 м 6/6 480 м
[Sc]
+24.3 +20.8 81 +30 +31 очень
душно
1015.0 1013.4 +28.0
00 20.08 ЮЗ 4-6
{12}
4000 м дымка 5/5 480 м
[Sc]
+21.0 +20.2 95 +26 +26 душно 1017.0 1015.6
06 20.08 СЗ 1 400 м туман 4/3 480 м
[Sc]
+15.6 +15.6 100 +16 +16 1015.8 1014.3 +15.5

 

Местоположение метеостанции Кенитра (Марокко): широта 34.30 долгота -6.60 высота над уровнем моря 5 м.

В архиве по умолчанию представлена погода в Кенитре за последнюю неделю. Архивные данные за месяц целиком и за предыдущие месяцы, начиная с января 2011 года, Вы можете получить, выбрав интересующий диапазон дат из раскрывающегося списка и нажав кнопку "Ввод!".


*Определитесь, кто Вы:
робот инопланетянин человек

Внимание! Время в таблицах - всемирное. Для получения местного времени необходимо прибавить поправку, которая равна 0 ч.

Смотрите также архив погоды в соседних городах и на ближайших метеорологических станциях:

Погода в Рабате (Марокко) (32 км)
Погода в Мохаммедии (Марокко) (98 км)
Погода в Эль-Араише (Марокко) (107 км)
Погода в Мекнесе (Марокко) (109 км)
Погода в Касабланке (Марокко) (128 км)
Погода в Нуасере (Марокко) (137 км)
Погода в Шавене (Марокко) (147 км)
Погода в Фесе (Марокко) (155 км)
Погода в Хурибге (Марокко) (163 км)
Погода в Танжере (Марокко) (171 км)

Пояснения к столбцам:

Ветер - указаны скорость ветра в м/с - средняя за 10 мин, порывы в срок и между сроками (в фигурных скобках) и направление, откуда дует ветер: С - северный, СВ - северо-восточный, В - восточный, ЮВ - юго-восточный, Ю - южный, ЮЗ - юго-западный, З - западный, СЗ - северо-западный.
Видимость - горизонтальная дальность видимости в метрах или километрах. При видимости от 1 до 10 км при отсутствии осадков обычно наблюдается дымка, при ухудшении видимости до 1 км и менее - туман. В сухую погоду видимость может ухудшаться дымом, пылью или мглою.
Явления - указаны атмосферные явления, наблюдавшиеся в срок или в последний час перед сроком; фигурными скобками обозначены явления, наблюдавшиеся между сроками (за 1-3 часа до срока); квадратными скобками обозначены град или гололедные отложения с указанием их диаметра в мм.
Облачность - указаны через наклонную черту общая и нижняя облачность в баллах и высота нижней границы облаков в метрах; квадратными скобками обозначены формы облаков: Ci - перистые, Cs - перисто-слоистые, Cc - перисто-кучевые, Ac - высококучевые, As - высокослоистые, Sc - слоисто-кучевые, Ns - слоисто-дождевые, Cu - кучевые, Cb - кучево-дождевые. Подробнее классификацию облаков см. в Атласе облаков (PDF).
T - Температура воздуха - температура, измеренная на высоте 2 м над землей.
Td - Температура точки росы - температура, при понижении до которой содержащийся в воздухе водяной пар достигнет насыщения.
f - Относительная влажность воздуха - влажноcть воздуха, измеренная на высоте 2 м над землей.
Te - Эффективная температура - температура, которую ощущает одетый по сезону человек в тени. Характеристика душности погоды. При расчете учитывается влияние влажности воздуха и скорости ветра на теплоощущения человека.
Tes - Эффективная температура на солнце - температура, которую ощущает человек, с поправкой на солнечный нагрев. Характеристика знойности погоды. Зависит от высоты солнца над горизонтом, облачности и скорости ветра. Ночью, в пасмурную погоду, а также при ветре 12 м/с и более поправка равна нулю.
P - Атмосферное давление - приведенное к уровню моря атмосферное давление.
Po - Атмосферное давление - измеренное на уровне метеостанции атмосферное давление.
Tmin - Минимальная температура - минимум температуры воздуха на высоте 2 м над землей.
Tmax - Максимальная температура - максимум температуры воздуха на высоте 2 м над землей.
R - Количество осадков - Количество выпавших осадков за период времени, мм. При наведении курсора мыши на число - период времени, за который выпало указанное количество осадков.
R24 - Количество осадков - Количество выпавших осадков за 24 часа, мм.
S - Снежный покров - Высота снежного покрова, см. При наведении курсора мыши на число - состояние снежного покрова и степень покрытия местности в баллах.